Theta_e
314 315 316 316 317 318 318 317 317 317 317 318 317 316 316 316 317 317 317 317 315 313 314 314 314 314 314 314 314 316 316 316 317 317 317 317 317 317 317 315 314 312 309 307 307 306 306 307 307 307 308 308 308 308 309 309 309 309 309 309 309 309 309 309 308 309 309 309 309 309 309 310 310 310 311 311 312 313 314 315 316 316 317 318 318 317
314 316 317 317 317 318 318 317 317 317 316 317 316 316 316 316 317 317 317 317 314 312 314 314 313 314 314 314 315 316 316 317 317 317 317 317 317 316 315 313 311 309 307 306 306 306 306 306 307 307 308 308 308 308 308 308 308 308 308 309 308 308 309 308 308 307 308 308 308 308 308 309 309 309 309 310 311 311 313 314 315 315 316 317 317 317
314 316 316 317 318 318 317 316 316 316 315 316 316 316 316 316 317 317 317 316 313 312 313 313 313 313 314 315 316 317 317 317 318 317 317 316 316 314 313 311 309 308 306 305 305 304 305 306 307 307 308 308 307 307 308 308 308 308 308 308 308 308 308 308 308 307 307 307 307 307 307 307 308 308 308 309 309 310 311 312 313 314 315 316 316 317
317 317 317 317 318 317 316 316 315 315 315 315 316 316 316 317 317 317 316 315 312 312 313 313 313 313 315 316 317 317 317 317 317 316 316 315 314 312 310 309 308 306 305 304 304 303 304 305 306 307 307 307 308 308 309 309 309 308 307 307 307 307 307 307 307 306 306 306 306 306 306 307 307 307 307 307 308 308 308 309 310 311 312 313 314 315
318 318 317 317 317 316 316 316 316 315 316 316 316 316 316 316 316 316 316 315 314 314 313 312 314 315 317 318 317 317 317 318 317 316 314 313 312 310 309 308 307 306 305 303 303 302 303 305 306 306 306 307 307 308 309 309 308 308 307 307 307 306 306 306 305 305 305 305 306 306 306 306 306 306 306 306 307 307 307 307 308 308 309 310 311 312
317 317 315 315 315 315 315 315 316 316 316 317 317 317 316 316 316 316 315 315 314 315 313 313 316 317 317 318 317 317 317 318 317 315 313 311 310 309 308 307 306 305 304 303 302 301 302 305 306 306 307 307 307 307 307 307 307 307 307 307 307 307 306 306 306 305 304 304 304 305 305 305 305 306 306 306 306 306 306 306 307 307 307 308 308 308
316 314 313 315 315 315 315 315 316 316 316 317 316 315 315 314 314 314 314 314 314 315 314 313 315 317 317 318 318 318 317 317 316 313 311 310 309 308 307 306 305 304 303 302 301 300 301 304 305 305 306 306 307 307 307 307 307 307 307 307 307 307 306 306 306 305 304 304 304 304 304 304 304 305 306 306 305 305 305 305 305 306 306 306 306 307
315 313 312 314 314 315 316 316 316 315 316 317 315 313 313 313 313 314 314 314 314 315 315 314 315 317 317 317 319 318 317 317 316 312 310 309 309 307 306 305 304 303 302 302 301 300 300 302 303 303 304 305 306 306 307 307 307 307 306 306 306 306 306 306 305 305 304 304 303 303 303 303 303 304 304 305 305 304 304 304 304 304 305 305 305 305
314 314 314 314 314 315 316 316 316 315 315 316 312 312 313 312 313 313 313 314 314 314 316 315 315 317 318 317 318 318 316 317 315 311 309 309 308 307 306 304 303 302 301 300 300 299 300 301 302 302 303 303 304 305 306 306 306 306 306 306 305 305 305 305 305 305 304 303 302 303 303 303 303 303 304 304 304 303 303 303 303 303 303 303 304 304
313 311 312 314 314 315 314 313 314 315 315 313 312 312 313 313 313 313 313 313 313 314 316 317 316 317 318 316 317 316 315 316 314 310 309 308 307 306 305 304 303 302 301 300 299 298 300 301 301 301 301 302 303 303 304 305 305 306 306 306 306 305 304 304 304 303 303 302 302 303 303 302 302 302 302 302 303 303 302 302 302 302 302 302 302 303
311 308 309 312 313 313 311 310 311 313 313 312 312 313 313 314 314 313 313 313 314 316 317 317 316 316 317 316 316 316 315 316 314 310 308 308 307 305 304 303 302 301 300 299 298 298 299 300 300 300 300 301 301 302 303 303 304 304 304 305 305 305 304 304 304 303 302 302 302 303 303 303 302 301 301 301 301 302 302 302 301 301 301 302 302 302
311 309 309 311 311 311 310 310 310 310 311 312 312 312 313 315 315 314 314 313 316 319 318 317 316 316 316 316 315 315 314 314 314 311 309 307 306 304 303 302 301 300 300 299 298 298 298 298 298 299 299 299 300 300 301 301 302 302 302 303 303 303 304 304 304 304 304 303 303 303 303 302 302 301 301 301 301 301 301 301 301 301 301 301 301 301
314 313 312 312 310 310 311 312 311 310 310 311 312 312 314 316 318 318 317 316 318 319 316 315 316 316 316 315 315 315 312 311 312 311 309 306 305 303 302 301 300 299 299 298 297 297 297 297 297 297 297 298 298 299 299 300 300 300 300 301 302 302 302 303 303 303 304 304 304 304 304 303 303 302 301 301 301 300 300 300 300 300 300 300 300 301
318 317 314 313 312 310 311 313 314 314 312 311 312 314 315 317 320 321 321 320 320 319 314 313 315 316 315 315 315 314 310 309 309 308 307 305 303 302 301 300 299 298 298 297 296 296 296 296 296 296 296 297 297 297 298 298 299 299 299 299 300 300 301 301 302 302 302 303 303 303 304 304 303 303 303 302 301 301 300 300 300 299 300 300 299 299
318 318 316 315 314 312 311 313 315 315 314 313 314 314 316 317 320 321 321 320 321 320 315 313 314 315 315 314 313 310 308 307 307 305 304 303 302 301 300 299 298 298 297 296 295 295 296 296 296 296 296 296 296 297 297 298 298 298 298 298 298 299 299 300 300 301 301 301 301 302 302 302 302 303 303 303 303 302 302 301 300 300 300 299 299 299
317 318 316 313 311 311 312 313 313 314 315 314 313 314 315 316 317 319 319 320 320 320 317 315 315 316 315 313 309 308 307 306 305 304 303 302 301 300 299 298 298 297 296 296 295 295 296 296 297 296 296 296 296 297 297 297 297 297 297 297 298 298 298 298 299 299 299 299 300 300 300 300 300 301 301 302 302 302 303 302 302 301 300 300 299 299
317 318 315 312 311 310 311 312 311 312 315 313 313 314 314 314 315 317 318 319 318 318 317 317 316 315 315 314 309 307 306 305 304 304 303 302 301 300 299 298 297 296 296 295 295 295 296 296 297 297 297 297 297 297 297 297 297 297 297 297 297 297 298 298 298 298 298 298 298 298 298 299 299 299 299 300 300 301 302 302 302 302 302 301 300 300
316 317 316 314 314 311 308 309 310 310 312 313 313 314 313 313 314 314 316 317 317 317 317 316 316 315 316 315 311 308 307 305 303 303 302 301 300 299 298 297 296 296 295 295 295 296 296 296 296 296 296 296 297 297 297 296 296 296 296 296 296 297 297 297 297 297 297 297 297 297 297 297 298 298 298 298 298 299 299 300 301 301 301 301 301 301
314 316 316 315 315 312 308 309 311 311 311 312 312 312 313 315 315 314 316 316 317 318 317 316 316 315 316 315 313 311 308 305 303 302 301 301 300 299 298 297 296 295 295 295 295 295 296 296 296 296 296 296 296 296 296 296 296 295 295 294 294 294 294 295 295 295 295 295 295 295 295 295 296 296 296 297 297 297 298 298 298 299 300 300 301 301
313 314 316 315 314 312 310 311 313 312 311 310 310 311 312 313 314 314 315 316 317 317 317 317 316 315 315 314 313 312 308 305 304 302 301 300 299 298 298 297 296 295 294 294 294 294 294 294 294 294 295 295 295 295 295 295 295 295 295 294 294 293 293 293 293 293 294 294 294 293 294 294 294 294 294 295 295 296 297 297 297 297 298 298 299 300
313 314 315 315 313 313 312 313 313 313 312 311 310 311 312 312 312 314 314 314 316 316 316 316 315 316 313 311 311 310 308 306 304 302 300 299 298 297 297 296 295 295 294 294 293 293 292 292 292 292 292 292 292 292 292 292 292 293 293 293 293 293 292 292 292 291 292 292 292 292 292 292 292 293 293 293 293 294 295 295 296 296 297 297 298 298
313 314 314 314 313 313 313 313 313 313 313 313 312 312 312 312 313 314 314 314 314 314 314 314 314 315 311 307 308 307 305 305 303 302 300 299 298 297 296 295 295 294 294 293 293 292 292 292 291 291 291 290 290 290 290 290 290 290 290 291 291 291 292 292 291 291 291 291 291 291 291 291 291 291 291 292 292 292 292 293 293 294 295 296 296 297
312 313 313 313 313 313 313 312 312 313 312 312 313 312 312 312 312 313 314 314 313 313 314 313 314 314 307 303 304 304 302 303 302 301 300 299 298 297 296 295 294 294 293 293 292 292 291 291 290 290 290 290 290 290 290 290 289 289 289 289 289 289 290 290 290 290 291 291 290 290 290 290 290 290 290 291 291 291 291 291 291 292 292 293 294 295
310 312 313 313 312 312 312 312 312 312 312 312 313 312 313 312 312 313 312 311 311 312 313 312 314 313 306 301 302 302 301 301 301 300 300 299 299 297 295 294 294 293 292 292 291 290 290 290 290 290 290 290 290 290 290 290 289 289 289 288 288 288 288 288 288 289 289 289 289 290 290 290 290 289 289 289 290 290 290 290 290 290 291 291 292 292
311 311 313 312 312 312 311 311 311 312 312 312 312 312 312 312 313 313 312 311 311 311 312 311 313 313 306 300 300 301 300 301 300 299 299 299 299 297 295 294 293 292 291 290 290 290 290 290 290 290 290 290 290 290 289 289 289 289 289 288 288 288 288 288 288 288 288 288 288 288 288 289 289 289 288 288 288 288 289 289 289 289 289 289 290 290
310 311 312 311 311 311 311 311 311 311 311 311 311 311 311 311 312 312 311 311 312 312 312 311 312 311 307 302 301 301 300 300 299 298 297 297 297 296 295 293 292 291 290 290 290 290 290 290 289 289 289 289 289 289 289 289 289 289 289 288 288 288 288 288 288 287 287 287 287 287 287 287 288 288 288 288 287 287 287 287 288 288 288 288 288 288
308 309 310 310 310 310 310 310 310 310 309 308 309 309 309 310 311 311 310 310 310 310 310 310 310 310 308 307 306 304 301 300 300 298 297 297 296 295 295 293 292 292 291 291 291 290 290 290 289 289 289 288 288 288 288 288 288 288 288 288 288 288 287 287 287 287 287 287 287 287 287 287 287 287 287 287 287 287 287 287 286 287 287 287 287 287
307 307 307 308 308 308 308 307 307 307 307 306 306 307 307 308 309 310 309 308 309 308 308 308 308 309 308 307 308 306 303 301 301 300 299 297 296 296 295 294 292 292 291 291 291 291 291 290 290 290 289 289 289 288 288 288 287 287 287 287 287 287 287 287 287 287 287 287 287 287 287 287 287 287 287 287 287 287 287 287 286 286 286 286 287 287
306 305 305 305 305 305 305 305 305 305 305 306 306 305 306 306 307 308 308 307 307 307 307 306 306 307 306 305 306 306 305 304 303 302 300 298 297 296 295 294 293 292 291 291 291 291 291 291 290 290 290 290 290 289 289 288 288 288 287 287 287 287 287 287 287 287 287 287 287 287 287 287 286 287 286 287 286 286 286 286 286 286 286 286 286 286
305 304 305 305 305 305 305 304 305 305 305 306 306 306 305 306 306 306 306 306 306 306 305 305 305 305 304 304 304 305 305 304 303 300 298 297 296 296 295 295 294 292 291 291 291 291 291 290 290 290 290 290 290 290 289 289 289 288 287 287 287 287 287 287 287 287 287 287 287 287 287 286 286 286 286 286 286 286 286 286 286 286 286 286 286 286
305 304 305 305 305 305 305 305 305 305 306 306 306 305 305 305 305 305 305 304 304 304 304 303 303 303 303 303 303 302 301 300 299 297 296 295 295 294 295 295 294 293 292 291 291 291 290 290 290 290 290 290 290 290 289 289 289 288 287 287 287 287 287 287 287 287 287 287 287 286 286 286 286 286 286 286 286 286 286 286 286 286 286 286 286 286
304 304 304 304 304 305 304 304 304 304 304 304 304 304 303 303 303 303 303 303 303 303 302 302 302 302 302 302 302 300 299 298 297 296 295 294 294 293 293 294 294 293 293 292 291 290 290 290 290 290 290 290 290 289 289 289 288 288 287 287 287 286 286 286 286 286 286 286 286 286 286 286 286 286 286 286 286 286 286 286 286 286 286 286 286 286
302 303 302 303 303 304 303 303 302 302 302 302 303 302 302 302 302 302 302 302 302 302 302 302 301 300 299 299 299 299 298 297 296 295 294 294 293 292 292 293 293 293 292 292 291 291 290 290 290 290 290 290 289 289 288 288 288 288 287 287 287 286 286 286 286 286 286 286 285 285 285 286 286 286 286 286 286 286 286 286 286 286 286 286 286 286
301 301 301 301 302 302 302 302 301 301 301 302 302 301 301 301 301 301 301 301 300 301 301 300 298 297 297 297 297 297 296 295 294 293 293 293 292 292 292 292 292 292 292 292 291 291 290 290 290 290 290 289 289 289 288 288 288 287 287 287 286 286 286 286 285 285 285 285 285 285 285 285 285 285 285 285 285 285 285 285 285 286 286 286 286 286
300 300 300 300 300 300 300 300 300 299 300 300 300 300 300 299 299 300 299 299 300 300 301 300 297 296 296 295 294 294 293 293 292 292 292 292 292 292 292 292 292 292 292 291 291 290 290 290 290 290 289 289 289 289 288 288 287 287 287 286 286 286 286 286 285 285 285 284 284 284 284 284 284 284 285 285 285 285 285 285 285 285 285 285 285 285
299 299 298 298 298 298 298 299 298 298 298 298 298 298 297 297 298 298 298 299 299 299 299 299 298 296 294 293 292 292 291 291 291 291 292 292 292 291 291 291 291 291 291 291 290 290 290 290 290 290 289 289 289 288 288 288 287 287 287 287 287 287 286 285 285 284 284 284 284 284 284 284 284 284 284 284 284 284 284 284 284 284 284 284 285 285
298 298 298 298 298 298 298 298 298 298 298 298 298 297 297 297 297 297 297 298 298 298 298 297 296 294 292 291 291 291 291 291 291 291 292 292 291 290 290 290 290 289 289 290 290 290 290 290 290 289 289 289 288 288 288 287 287 287 287 287 287 286 285 284 284 283 283 283 283 283 282 282 282 282 282 282 282 283 283 284 284 284 284 284 284 284
299 298 298 298 298 298 297 298 298 298 298 298 297 296 296 296 296 296 296 297 297 298 297 296 295 292 291 291 291 291 292 291 290 291 292 292 291 290 289 289 289 289 290 290 290 290 290 290 290 289 289 288 288 288 288 287 287 287 287 287 286 285 284 283 283 282 282 282 282 281 281 281 280 280 280 280 280 280 281 281 282 282 283 283 283 284
297 297 298 298 297 297 297 297 297 296 297 296 295 295 294 295 295 295 295 295 296 296 295 295 293 291 290 290 291 292 291 290 290 291 292 291 291 290 290 289 289 289 290 290 290 290 290 289 289 288 288 288 288 288 287 287 287 287 286 285 284 283 283 282 282 282 282 281 281 280 280 280 279 279 278 278 278 278 278 278 278 278 279 279 280 282
295 296 297 296 296 297 297 296 296 296 295 295 294 294 294 295 295 294 293 294 294 293 294 294 293 291 291 291 291 292 291 290 290 291 291 290 290 290 290 290 289 289 289 289 289 289 289 289 288 288 288 288 287 287 287 287 286 285 284 283 283 283 282 282 282 282 281 281 280 280 279 279 278 278 277 277 277 277 276 276 276 276 277 276 276 278
294 294 295 295 295 296 296 296 295 295 295 296 295 294 294 294 294 293 293 294 293 293 294 294 293 293 292 291 291 291 291 291 291 291 290 290 290 290 290 290 290 289 289 289 289 289 288 288 288 288 288 287 287 287 286 285 284 283 283 283 282 282 282 282 281 281 280 280 280 280 280 279 278 277 277 276 276 276 276 276 275 275 275 275 274 275
292 293 293 294 294 295 294 295 294 294 295 295 294 294 294 293 293 293 293 293 293 292 293 294 293 292 292 291 291 291 290 290 290 290 290 290 290 290 290 290 290 289 289 289 289 288 288 288 288 287 287 287 286 285 284 283 283 283 282 282 282 282 281 281 281 281 280 280 280 280 280 279 278 277 277 277 276 275 275 276 275 273 273 272 272 273
292 292 292 292 293 293 293 294 293 293 294 294 293 293 293 293 293 293 292 292 292 292 292 292 292 291 291 291 291 290 290 290 290 290 290 290 290 290 290 289 289 289 289 288 288 288 287 287 287 287 286 285 284 283 283 282 282 282 282 282 282 281 281 281 280 280 280 280 279 279 278 278 278 277 277 277 276 274 274 274 273 272 271 270 270 270
292 292 291 292 293 292 292 293 294 293 293 293 293 293 293 293 293 293 293 292 292 292 291 291 291 291 291 290 290 290 290 290 289 289 289 289 289 289 289 289 289 289 288 288 287 287 287 287 286 286 285 283 283 282 282 282 282 282 282 282 281 280 280 280 279 279 279 278 278 277 277 277 277 277 277 276 274 273 273 272 271 269 269 268 267 267
292 292 292 292 292 292 292 292 293 293 293 293 293 293 293 293 293 293 293 292 292 292 291 291 291 291 290 290 290 290 289 289 289 289 289 289 289 289 289 289 288 288 287 287 286 287 286 285 285 284 283 283 282 282 282 282 282 282 282 281 280 279 279 278 278 278 277 277 277 277 277 276 276 276 275 273 271 270 270 269 267 266 266 266 266 266
292 293 292 292 292 292 292 292 293 293 292 292 292 292 292 292 292 292 292 292 292 291 291 291 290 290 290 290 290 289 289 289 289 289 289 289 289 289 288 288 287 287 287 286 286 286 285 284 283 283 283 283 282 282 282 282 281 280 280 279 279 278 277 277 276 277 277 276 276 276 275 275 274 273 272 270 269 268 267 266 265 264 264 264 265 265
292 292 292 291 291 291 291 291 292 292 292 292 292 292 292 292 292 291 291 291 291 291 291 290 290 290 289 289 289 289 289 289 289 289 289 289 288 288 287 287 287 286 286 286 285 284 283 282 282 282 282 282 282 282 282 281 280 279 278 278 277 277 276 276 276 276 276 275 275 274 274 273 272 270 269 268 267 266 265 264 264 264 264 264 264 265
292 292 291 291 291 290 291 291 291 292 292 292 291 291 291 291 291 291 291 291 291 290 290 290 290 289 289 289 289 289 289 288 288 288 288 288 287 287 287 286 286 286 285 284 283 282 282 282 282 282 282 282 282 281 280 279 279 278 277 276 276 276 276 275 275 274 274 274 273 273 272 270 268 267 267 266 265 264 264 263 263 263 264 264 264 264
292 292 291 291 291 291 291 291 291 291 291 291 291 291 291 291 291 291 291 290 290 290 290 290 289 289 289 289 288 288 288 288 287 287 287 287 287 286 286 286 285 285 284 283 282 281 281 281 281 282 282 282 281 280 279 278 277 277 276 275 275 275 275 275 274 273 273 272 271 270 268 267 266 266 265 264 263 263 263 263 263 263 263 264 264 264
292 291 291 291 291 290 291 291 291 291 291 291 291 291 291 291 291 290 290 290 290 290 290 289 289 289 289 289 288 288 287 287 287 286 286 286 286 285 285 285 284 283 282 281 281 281 281 281 281 281 281 281 280 279 278 277 277 276 275 274 274 274 274 273 273 272 271 270 269 268 267 267 266 265 263 263 263 263 263 263 263 263 264 264 264 265
292 291 291 291 291 291 291 292 292 291 291 291 291 291 291 291 290 290 290 290 290 290 289 289 289 288 288 288 288 287 287 286 286 286 286 285 285 284 284 283 282 282 281 281 281 281 281 281 281 281 281 280 278 278 277 277 276 275 274 274 274 273 273 272 271 270 270 269 269 268 266 265 263 263 262 262 263 262 262 263 263 263 264 264 264 265
Wind_Speed
8 7 6 7 10 12 12 13 15 15 15 16 13 12 13 12 12 13 15 10 3 4 10 11 13 12 12 13 16 26 26 19 19 19 18 17 12 9 7 10 14 16 18 16 15 16 16 15 14 12 10 10 8 8 7 7 6 6 5 7 9 10 9 10 13 15 16 16 18 21 24 27 31 34 38 40 43 44 46 48 49 50 50 49 49 48
5 7 7 10 15 16 12 9 11 13 14 15 12 12 12 11 12 12 16 11 2 1 9 9 13 14 14 16 18 21 19 16 16 13 11 11 9 7 8 14 17 16 17 19 21 22 23 22 20 17 15 14 14 14 14 13 11 9 8 7 8 10 10 10 12 14 15 15 16 18 20 22 25 28 32 34 37 39 42 44 47 49 50 50 50 49
6 8 11 16 17 14 10 8 10 13 14 13 10 10 9 9 11 12 12 7 2 1 7 10 12 13 16 20 18 14 13 13 11 8 7 8 7 10 14 17 18 19 22 25 27 27 28 27 25 23 21 19 19 18 17 16 15 14 12 9 8 8 9 9 10 12 14 15 16 17 18 20 22 24 28 29 32 34 37 40 42 44 46 49 50 50
6 7 10 17 15 11 11 11 11 12 10 9 8 8 8 9 9 8 4 1 0 5 8 11 11 11 15 17 13 10 12 11 5 3 6 9 12 17 19 19 20 22 24 25 28 31 32 31 30 28 27 24 23 21 19 18 18 17 16 13 10 8 7 6 7 8 11 13 14 15 16 17 19 22 24 25 27 29 32 34 36 37 40 43 46 48
12 8 3 8 9 9 12 12 11 10 8 9 9 9 10 11 11 11 7 5 7 7 5 8 9 7 7 8 7 7 8 9 2 5 11 16 16 18 20 20 20 20 21 23 27 31 34 35 34 32 30 28 26 26 24 22 20 19 17 15 12 10 8 6 5 5 7 10 12 12 12 13 15 18 21 23 24 26 27 28 30 31 32 35 38 41
13 7 1 4 7 8 10 10 11 9 7 7 8 9 11 12 12 13 11 7 8 4 2 3 7 5 2 5 7 5 6 8 4 10 14 18 16 16 18 18 18 17 19 22 23 26 33 36 35 34 33 31 30 29 27 25 23 20 18 16 14 12 11 9 7 5 5 8 11 11 11 12 14 16 18 20 22 23 24 25 25 26 27 28 29 32
6 1 2 4 8 8 8 10 12 9 7 6 3 3 6 8 9 9 8 5 5 4 1 1 6 7 4 8 11 7 9 8 7 12 14 16 14 13 15 16 16 16 16 18 19 24 33 36 35 35 35 34 33 31 28 26 25 23 22 19 17 14 12 11 10 8 8 8 9 9 9 10 12 14 14 16 20 21 22 24 24 25 25 25 24 26
4 3 1 3 6 7 7 8 7 7 7 4 1 3 3 5 6 5 5 5 5 7 7 6 7 8 6 8 10 10 12 9 9 13 12 13 11 12 14 15 16 16 15 16 18 24 32 35 35 35 35 34 33 31 30 29 27 26 25 23 21 18 16 13 12 10 9 8 8 8 9 10 11 12 13 14 18 21 21 22 23 24 24 24 23 23
3 4 4 5 6 6 6 3 1 5 7 1 3 2 2 3 4 3 4 5 5 7 7 7 8 6 7 5 5 9 12 10 11 12 11 10 9 12 13 13 14 15 18 20 20 24 32 35 34 34 33 32 31 30 31 31 30 30 28 26 24 22 20 18 15 13 11 10 8 9 10 10 10 10 12 12 15 19 22 22 22 23 24 24 23 22
2 3 2 4 5 5 3 2 3 4 5 1 2 1 1 3 4 4 5 5 5 7 8 8 10 6 7 4 6 6 9 9 12 11 9 10 10 11 11 12 12 13 17 19 20 26 32 34 32 31 31 31 30 30 30 30 30 31 31 30 29 28 26 24 21 18 15 12 11 11 10 10 9 9 10 12 13 16 20 22 22 23 23 24 23 23
2 4 1 4 7 2 4 4 2 1 1 2 1 3 4 6 6 5 5 3 4 7 10 10 15 9 6 3 5 3 3 6 9 10 9 10 12 11 11 11 11 12 15 16 20 27 31 31 30 30 30 30 30 30 29 30 30 30 31 31 31 31 30 29 27 24 21 19 18 17 15 13 11 11 11 12 14 14 16 19 21 22 23 23 23 23
5 4 3 4 5 2 3 2 1 2 2 2 3 3 5 6 4 4 4 3 5 8 6 6 14 12 7 3 2 2 4 4 6 10 11 10 11 12 10 9 11 13 14 16 22 29 30 30 30 30 30 30 30 30 30 30 30 30 31 30 30 31 31 31 30 29 27 26 25 24 22 19 16 15 14 14 14 15 15 17 18 20 22 23 24 23
5 7 7 5 4 6 5 2 2 3 3 3 3 3 5 6 4 6 5 4 6 5 1 4 7 8 8 7 5 4 7 7 8 10 12 13 13 12 10 8 12 14 15 20 25 28 29 29 30 30 31 31 31 31 31 31 31 31 31 30 30 31 30 30 30 30 30 30 30 28 27 25 22 20 18 16 16 15 15 15 16 18 19 20 22 24
3 2 7 6 3 9 10 4 3 3 4 6 4 4 5 6 7 8 8 7 8 4 4 2 3 5 7 8 7 6 10 10 12 14 15 16 15 12 10 10 14 15 17 22 25 26 27 28 28 29 29 30 30 31 31 31 31 31 31 30 30 30 29 29 29 30 30 30 30 29 28 27 26 25 23 21 19 18 17 16 16 17 17 17 19 22
6 4 5 6 1 8 12 8 5 3 1 7 4 4 5 6 7 9 8 7 9 7 3 2 2 4 5 0 4 8 12 13 14 15 15 15 14 12 12 14 15 16 18 20 22 24 25 26 26 27 28 28 28 29 29 29 29 30 30 30 30 30 29 29 29 29 29 29 29 28 28 27 26 26 25 25 24 22 21 20 18 18 17 18 18 19
8 7 2 3 1 4 7 5 3 2 2 3 2 3 5 5 6 7 8 8 9 10 7 5 4 5 5 5 11 10 12 13 13 14 13 13 12 12 13 14 14 14 15 17 19 21 23 23 24 24 25 25 26 26 26 27 27 28 28 28 28 28 28 28 28 28 27 27 26 26 26 26 26 25 25 24 24 24 23 23 22 20 19 18 18 19
5 5 4 3 1 2 1 2 1 2 3 1 2 3 2 2 4 6 9 9 9 11 9 7 7 8 7 4 11 10 10 10 10 10 11 12 12 12 13 12 12 12 13 15 18 19 20 21 21 21 22 22 23 23 24 25 25 26 26 26 26 26 27 27 27 27 26 26 25 25 25 25 25 25 25 24 24 23 23 22 22 22 22 20 19 19
3 5 1 1 2 2 2 3 2 4 2 1 3 2 3 1 2 4 8 8 10 12 8 8 12 11 8 4 6 10 9 9 8 8 10 10 10 11 11 10 10 11 12 14 16 16 17 17 17 18 18 19 19 20 21 22 23 24 24 24 24 25 25 25 25 25 25 25 26 25 25 24 24 23 23 23 23 23 23 23 23 22 23 22 22 21
3 5 5 3 3 1 3 1 4 5 4 3 3 2 2 4 5 5 6 7 9 11 8 10 14 11 9 8 3 6 10 10 8 8 8 8 8 9 9 8 7 8 10 11 13 14 14 14 15 15 15 15 16 17 18 18 20 21 22 22 23 23 23 23 23 23 24 24 25 25 25 24 24 24 23 23 23 23 22 23 23 23 24 24 24 24
2 4 6 2 2 2 3 3 6 5 4 2 3 1 2 3 4 6 5 5 8 10 9 10 10 8 7 7 6 3 11 12 9 8 7 6 7 6 6 6 5 5 6 7 8 9 11 12 13 14 14 14 15 15 16 16 17 18 19 20 21 22 22 22 22 22 22 23 23 23 23 23 23 23 23 23 23 23 23 23 23 23 23 24 24 25
2 5 6 3 3 4 4 5 6 7 5 4 4 5 4 3 2 4 5 5 7 9 9 8 9 7 4 5 7 7 9 8 8 8 6 6 7 5 5 4 4 4 4 5 5 6 8 10 12 13 14 15 15 15 16 17 17 17 17 18 19 20 22 22 23 23 22 22 22 22 22 23 23 24 24 24 23 23 23 22 23 23 23 23 23 23
3 4 7 7 4 6 8 6 7 10 8 6 6 6 6 7 5 5 7 7 6 8 8 9 11 7 2 5 7 7 7 6 7 7 7 7 6 5 5 4 4 4 4 5 7 7 9 10 11 12 14 14 15 16 17 19 20 20 20 20 20 20 21 22 23 23 23 22 22 22 22 22 23 23 24 24 24 24 24 23 23 23 23 23 23 23
1 2 6 9 9 11 14 13 13 12 9 8 7 7 8 8 8 9 10 7 5 8 8 9 12 6 3 5 6 7 6 6 7 7 7 7 5 5 5 5 5 4 4 5 6 6 8 9 10 11 13 13 14 16 17 18 20 22 23 23 23 22 22 22 22 23 24 24 25 25 24 23 23 23 23 24 24 25 25 25 25 25 25 25 24 24
2 2 6 8 8 11 14 15 12 8 6 7 7 7 7 7 7 8 7 4 4 6 7 9 11 5 3 4 5 6 5 5 5 5 6 5 4 4 4 4 3 2 2 2 3 5 6 8 9 10 12 13 14 15 16 17 19 20 21 23 24 24 24 23 23 23 23 24 25 26 26 25 25 24 24 24 25 25 25 25 26 26 27 27 26 26
1 4 5 7 7 7 9 10 6 1 1 3 4 5 5 5 6 6 4 3 4 7 9 10 10 5 1 2 2 3 3 3 4 4 4 4 4 4 3 2 3 3 3 2 2 3 4 5 6 8 9 10 11 13 14 15 16 18 19 20 22 23 24 24 25 25 25 26 26 26 27 27 28 27 27 26 26 26 26 26 26 26 27 27 27 28
3 4 4 6 8 8 8 7 5 1 1 1 4 7 7 8 9 8 6 7 8 8 10 9 9 5 2 2 4 6 6 6 6 6 5 6 6 6 6 5 5 5 3 2 1 2 3 4 5 6 7 8 9 10 11 12 13 14 15 16 18 20 21 22 24 25 26 27 28 28 28 28 29 29 30 29 29 28 28 28 27 27 27 27 27 27
2 4 6 10 11 11 11 11 10 9 7 8 9 10 11 10 10 8 7 9 9 8 9 11 12 11 8 9 9 7 8 7 7 8 8 9 9 9 9 8 7 6 6 4 3 2 2 3 4 5 6 7 8 9 10 11 11 12 13 14 15 17 18 20 21 23 24 26 27 28 29 29 29 30 30 30 31 31 31 31 31 30 28 28 27 27
3 6 11 14 14 15 16 17 18 16 14 15 15 15 15 14 12 11 12 13 11 10 11 12 13 15 13 15 14 8 6 7 7 10 12 12 12 12 11 10 9 8 8 7 6 5 5 5 5 5 6 6 8 9 10 12 13 13 14 15 16 17 18 19 21 22 23 25 26 27 29 30 31 31 31 31 31 32 32 33 33 33 32 31 29 29
5 8 11 14 15 17 19 19 19 18 16 16 17 18 18 18 17 16 16 17 14 13 13 13 16 18 16 17 20 17 11 10 11 12 13 12 12 12 12 11 10 9 8 7 7 6 6 6 7 7 7 7 8 9 10 12 13 14 16 18 18 19 20 21 23 23 24 25 26 27 28 29 31 32 32 33 33 33 33 33 33 34 35 35 34 33
5 7 10 13 14 16 19 20 19 18 17 18 18 20 20 20 22 21 20 20 18 17 18 19 22 21 18 18 20 15 9 9 10 10 10 10 11 11 11 11 11 9 8 7 6 6 6 7 7 7 8 8 9 10 11 12 13 16 20 21 21 23 23 24 25 25 26 27 27 28 29 29 30 31 33 34 35 35 35 36 36 36 36 37 37 37
5 7 8 7 9 13 16 18 17 16 16 17 17 18 20 21 21 20 19 19 18 18 20 22 23 19 16 13 8 4 6 8 8 8 8 8 9 9 10 10 10 9 8 7 6 6 7 7 7 8 8 8 9 10 11 12 14 18 21 22 23 25 26 27 28 28 29 30 31 32 32 32 33 33 34 35 36 36 37 37 38 38 39 40 40 40
4 6 4 4 7 9 10 13 13 11 12 14 16 19 20 19 17 16 16 16 17 18 20 21 19 13 7 3 2 4 6 5 6 7 6 6 6 7 8 10 11 10 9 8 8 8 8 8 8 9 9 9 11 12 13 16 19 22 22 22 25 27 29 31 32 33 33 33 34 34 35 35 36 36 36 36 37 38 38 39 39 39 40 41 42 43
4 5 4 5 6 4 7 10 7 5 8 11 11 13 17 17 17 17 16 15 17 17 16 13 9 4 2 2 1 2 4 4 4 4 5 5 5 6 9 10 11 11 10 10 9 9 10 9 9 10 11 12 14 17 20 22 25 26 26 26 28 30 32 35 36 37 38 37 37 37 37 37 37 38 38 38 38 39 40 40 41 41 41 42 43 44
7 7 6 6 5 5 8 8 4 3 9 8 3 5 12 14 15 16 15 16 17 14 9 5 2 2 2 2 2 2 2 2 3 4 4 4 5 8 10 11 11 12 11 11 11 11 11 11 12 12 13 15 19 23 26 27 28 29 29 30 33 35 37 39 40 41 41 41 40 40 39 40 40 40 40 40 40 41 41 42 42 43 43 43 44 45
9 9 8 7 7 7 8 7 8 10 8 2 3 2 6 7 8 11 14 15 16 14 11 8 4 5 3 2 2 1 2 4 6 7 7 7 9 12 12 12 13 13 13 13 14 14 13 14 14 16 18 22 26 28 29 30 29 29 31 34 37 40 42 42 43 44 43 43 43 42 42 43 43 44 44 44 43 43 44 45 45 46 46 46 47 47
10 8 7 7 7 8 7 9 11 9 3 1 3 3 2 4 6 10 12 12 10 10 12 10 4 5 6 4 2 2 4 6 9 11 12 12 13 14 14 14 15 15 16 17 17 17 17 17 18 20 24 28 30 30 30 30 30 31 34 39 41 44 45 45 46 46 45 45 45 46 46 47 47 48 48 49 50 50 49 49 50 50 51 51 52 51
11 9 7 7 7 7 9 10 11 10 8 8 7 3 1 4 5 6 7 6 4 6 7 4 4 6 6 3 0 2 4 5 7 12 14 13 12 12 13 14 15 16 18 19 18 19 19 19 21 25 28 31 32 32 30 31 33 35 39 43 44 46 46 46 46 46 47 47 48 48 49 49 49 49 49 51 53 55 56 57 57 57 57 57 58 57
11 10 9 8 7 7 9 10 9 11 11 7 3 3 5 4 4 4 5 5 4 7 8 7 7 7 5 2 3 4 2 3 5 11 12 7 7 8 10 12 14 15 16 16 17 18 18 18 22 26 29 31 32 32 31 33 36 39 42 45 45 46 46 46 47 48 48 49 49 49 50 49 48 49 50 51 53 55 58 60 60 61 63 63 64 64
8 9 9 9 8 8 10 10 9 10 7 2 0 3 5 4 4 4 7 8 2 3 7 10 8 7 6 6 6 6 3 4 5 9 9 3 4 8 10 11 13 14 15 16 16 17 19 21 24 27 29 30 32 32 33 36 39 41 43 44 45 45 46 47 48 49 50 51 51 52 53 52 51 52 52 53 54 55 56 58 60 61 62 63 64 68
4 6 8 9 9 10 10 9 8 8 4 0 0 1 3 3 3 3 9 8 0 3 8 12 11 10 10 9 6 6 6 7 8 12 13 11 10 12 13 15 16 16 17 17 16 17 21 24 27 28 30 30 32 33 36 38 40 42 43 43 44 45 47 49 50 51 53 54 55 56 58 57 56 55 54 54 55 56 57 59 60 60 60 59 61 65
3 4 7 9 10 11 11 10 8 7 6 4 3 4 6 3 1 6 9 3 5 7 10 14 16 14 11 9 7 7 10 12 15 19 19 17 16 15 15 17 18 18 17 15 15 19 24 26 28 29 30 31 32 35 37 39 41 41 42 43 45 47 49 50 52 54 55 58 59 61 62 61 59 58 57 57 57 58 60 60 58 58 59 60 60 61
2 3 5 8 9 9 9 10 9 7 6 5 4 6 7 4 4 6 4 2 9 11 12 15 16 13 12 13 13 14 16 18 20 21 20 19 18 17 17 18 18 18 16 14 17 22 26 28 29 30 31 32 34 36 37 38 40 41 43 45 48 49 51 53 55 57 59 61 62 63 64 63 61 60 60 60 59 59 60 61 60 58 58 58 59 59
4 4 6 7 7 7 7 8 8 6 3 5 6 3 5 7 6 5 2 4 9 10 11 14 16 15 15 16 17 18 20 20 20 20 20 20 19 19 19 19 17 17 18 19 21 25 27 29 30 31 32 33 34 35 36 38 40 42 45 48 49 51 54 56 58 60 61 62 62 62 62 61 61 60 60 60 60 58 60 62 60 58 56 56 57 58
5 5 6 6 5 7 8 7 6 5 1 8 8 4 5 8 10 8 6 7 9 10 11 12 14 16 16 16 17 19 20 20 20 20 20 20 20 19 18 16 15 18 21 23 23 26 29 30 31 32 33 32 33 34 37 39 42 45 47 50 51 53 56 57 58 59 60 60 60 60 59 59 60 59 59 60 59 58 61 61 57 55 55 52 50 50
7 8 9 8 6 7 9 9 8 9 8 7 9 10 12 17 21 18 16 18 19 18 16 15 18 19 17 16 18 19 19 19 20 20 20 20 18 16 15 17 19 22 24 25 26 28 31 30 31 32 32 32 34 36 39 41 44 48 50 52 52 53 55 55 56 57 57 57 57 58 58 58 58 58 58 57 56 56 58 56 52 50 49 43 40 41
11 15 13 8 8 10 13 16 16 18 22 21 18 19 23 28 31 27 22 22 22 20 19 19 21 21 18 17 17 18 18 20 21 22 21 18 16 15 17 20 23 24 26 27 29 30 30 30 30 31 32 34 36 38 41 44 46 49 51 52 51 51 51 52 53 54 55 55 55 56 56 56 57 57 56 54 52 52 52 51 48 45 41 36 35 37
14 20 14 8 10 12 11 14 16 19 25 25 22 22 25 26 26 25 22 21 21 21 21 21 21 20 20 20 20 20 20 21 21 20 18 16 17 19 21 23 24 25 27 29 29 30 29 29 30 31 34 37 39 41 45 47 48 48 49 48 48 48 48 49 51 53 54 54 54 54 54 55 55 55 54 52 50 50 49 46 43 40 36 34 34 35
11 14 11 10 13 13 12 15 21 23 26 26 24 22 23 24 24 23 23 23 22 22 21 21 23 23 24 25 24 23 22 21 20 19 19 19 22 24 25 26 27 27 28 28 28 28 28 29 31 34 37 39 42 44 47 47 48 47 46 45 44 45 47 48 49 50 52 52 53 53 53 53 52 52 52 51 48 46 45 42 38 36 36 35 35 36
11 9 9 9 11 12 13 18 23 22 22 25 26 25 24 25 25 25 25 23 22 21 20 21 24 26 26 26 25 23 23 23 22 22 23 24 25 26 27 28 28 28 28 28 27 27 28 31 34 36 39 42 44 46 47 46 46 44 42 41 41 42 45 47 48 49 50 51 52 52 52 52 51 50 50 49 45 44 43 41 38 38 39 39 37 37
13 10 10 9 9 9 11 15 18 14 12 18 22 21 21 22 23 24 24 21 19 21 21 21 24 27 27 27 27 26 26 25 23 24 25 26 26 27 27 26 27 27 27 27 27 28 30 33 36 39 42 44 45 46 46 45 44 40 38 38 39 40 42 45 46 48 49 50 51 52 52 53 52 49 46 45 45 45 45 43 39 36 38 40 39 38
17 14 11 9 10 11 14 19 20 15 13 19 24 23 22 23 22 22 22 20 20 23 24 23 25 27 28 28 28 26 25 25 25 25 26 26 26 26 26 26 26 26 26 26 27 29 32 35 38 41 43 44 44 44 44 43 41 38 37 37 38 40 41 43 45 47 49 50 52 52 51 50 47 44 42 43 44 44 45 45 42 37 35 36 38 38
Wind_Direction
187 213 209 219 238 247 246 234 242 257 270 281 284 277 277 278 275 274 278 289 3 300 281 286 289 288 283 280 274 275 283 288 280 274 274 279 292 310 340 21 36 40 33 27 30 35 36 34 33 28 22 22 11 359 351 345 345 339 329 319 310 300 291 288 286 282 278 275 271 268 267 265 262 260 259 258 257 256 255 254 253 254 254 253 253 252
190 227 228 231 245 258 271 273 267 271 274 276 276 274 273 272 271 272 279 286 71 276 282 292 295 295 293 281 271 273 279 278 276 280 287 296 320 352 33 50 50 46 44 45 47 48 48 46 44 41 35 28 22 16 11 9 6 359 348 338 327 315 310 307 299 291 286 283 279 276 274 271 269 267 266 264 263 262 259 257 255 255 255 255 254 253
213 233 234 239 252 265 273 280 278 272 271 271 266 269 269 267 275 278 276 279 107 238 289 302 299 296 289 281 278 276 271 269 280 306 325 335 18 49 53 54 49 44 47 48 48 50 50 49 48 46 42 36 31 25 20 17 12 8 0 351 338 325 323 322 314 307 296 287 280 276 274 273 271 269 268 267 267 266 265 263 260 258 257 257 257 256
237 238 234 244 256 265 264 265 267 265 262 256 252 260 264 265 277 284 276 114 151 266 286 298 293 281 274 273 271 258 257 264 273 356 32 51 68 72 63 55 49 42 40 41 44 48 50 50 49 47 45 42 38 33 27 21 16 15 12 6 356 341 336 332 325 317 302 290 285 281 277 277 276 274 274 275 274 273 272 272 271 269 265 263 261 259
256 266 234 244 254 253 262 267 260 259 260 249 245 249 258 269 276 283 297 319 301 279 268 286 287 276 272 268 241 211 253 271 200 97 76 74 72 75 71 63 56 47 38 37 40 45 50 53 50 48 47 45 43 39 34 29 25 24 23 21 17 5 356 348 339 330 314 304 299 297 295 294 290 286 285 284 281 280 280 279 279 279 276 273 270 267
261 277 116 226 249 247 256 264 255 254 268 263 250 247 259 276 284 288 300 314 304 281 176 308 307 298 320 282 247 210 282 283 132 98 80 71 56 58 66 64 62 55 47 44 40 42 52 56 53 50 49 46 45 43 39 37 33 33 33 31 30 25 14 5 3 3 355 334 316 311 312 310 305 302 299 295 292 290 288 287 286 284 282 280 279 276
261 301 72 245 254 251 245 255 256 251 265 270 276 287 275 279 284 289 298 298 289 284 255 314 301 288 287 275 257 240 270 262 125 94 80 74 63 58 57 57 57 53 50 48 41 45 55 58 54 51 49 47 47 45 43 41 37 37 36 34 34 34 31 26 25 21 19 8 339 329 330 323 313 306 302 297 295 294 293 294 295 294 291 289 287 283
208 187 123 220 237 244 236 253 255 228 246 265 33 2 312 284 282 282 286 273 270 291 283 237 241 266 280 278 251 226 248 237 129 95 79 78 76 73 65 59 56 49 48 46 42 47 56 58 55 52 49 47 46 45 45 44 42 40 37 34 33 33 35 36 41 42 38 32 9 3 7 358 339 321 311 301 297 300 302 301 303 302 300 299 296 293
150 178 183 185 206 234 230 264 336 208 237 285 65 345 324 299 284 267 270 273 274 291 281 217 205 252 280 278 221 211 239 217 134 102 93 91 76 70 67 63 59 54 53 52 47 49 56 58 55 52 49 47 45 43 43 44 44 44 41 39 37 35 34 31 34 40 44 49 42 39 35 18 360 337 323 314 307 310 313 313 313 311 308 307 304 302
131 157 183 190 207 235 218 40 22 235 239 88 106 234 248 246 252 245 254 277 277 270 268 220 190 233 287 260 194 201 233 200 136 108 112 113 90 73 65 62 60 56 56 53 51 53 58 58 55 53 51 48 46 43 42 42 41 42 41 40 39 39 38 34 32 30 31 36 38 42 45 32 16 356 337 327 320 317 318 320 322 320 317 314 311 309
180 119 65 231 227 227 98 79 17 294 202 116 215 266 271 255 248 246 242 263 267 257 262 220 190 214 284 239 193 187 212 182 134 122 126 113 97 82 66 61 60 57 56 51 52 57 58 58 56 54 52 50 48 45 43 42 40 40 39 38 39 39 39 38 37 35 32 30 29 29 28 23 13 3 353 342 333 327 321 321 324 325 324 320 317 314
210 190 211 214 213 163 113 149 162 107 134 199 247 294 302 277 245 243 227 196 246 267 279 196 186 213 246 219 203 138 112 109 114 128 133 117 102 89 72 63 62 59 56 52 55 58 57 56 54 52 50 49 46 44 43 42 41 41 40 38 37 37 37 37 37 37 35 32 31 29 25 19 11 3 357 349 341 338 332 325 323 325 325 323 321 319
214 211 202 182 183 189 196 223 180 164 179 205 244 265 285 287 261 258 251 225 252 267 96 140 190 225 245 249 242 165 108 86 85 105 120 117 106 96 88 76 67 62 57 55 56 57 56 55 52 50 47 45 43 42 41 40 39 39 39 37 36 35 34 33 32 32 31 31 31 30 28 24 19 12 4 356 348 343 338 330 323 323 322 319 318 319
268 202 177 175 186 190 195 222 235 212 184 191 216 229 243 277 276 271 272 264 268 262 117 134 223 240 258 256 230 153 104 95 93 94 104 108 106 105 98 81 68 61 57 57 56 55 55 53 51 49 46 43 41 39 37 36 35 35 34 33 33 34 31 29 28 26 26 27 27 27 26 25 22 19 15 8 1 352 344 335 326 322 319 314 313 313
274 284 179 173 159 174 189 227 274 350 193 202 213 240 245 264 268 273 279 273 279 291 291 240 206 243 273 290 118 110 100 99 98 97 99 100 102 100 87 74 66 59 57 58 56 55 54 53 50 48 45 42 40 37 35 33 31 30 30 29 28 28 28 26 26 25 24 23 23 22 22 22 20 19 17 14 11 5 358 350 340 331 323 316 312 309
251 270 119 106 38 162 187 239 299 341 271 215 173 232 251 266 265 270 277 275 285 292 279 244 227 263 268 120 113 110 103 97 95 98 99 95 94 88 76 69 64 60 57 57 56 54 52 49 47 44 41 39 37 34 32 30 28 27 26 25 24 23 23 22 22 22 23 22 21 20 20 18 17 16 16 14 12 10 6 1 356 349 340 328 317 309
251 254 81 77 265 160 158 352 25 251 276 98 153 227 269 302 285 277 275 275 275 275 270 256 256 265 260 163 124 113 100 98 100 98 95 92 88 80 72 67 63 61 59 59 60 57 53 48 44 41 38 35 31 29 28 26 26 24 22 21 20 18 17 16 16 16 17 18 17 19 19 18 16 15 14 13 11 9 6 4 2 359 354 348 337 325
305 272 271 261 244 121 72 352 307 243 253 189 206 283 3 299 255 264 268 270 266 265 264 262 266 270 272 253 135 130 123 114 113 105 99 98 91 83 78 70 66 65 65 67 67 63 59 53 47 43 38 34 31 28 26 24 23 22 21 19 17 16 15 14 13 12 11 10 10 12 13 13 13 12 12 11 10 8 6 3 2 1 359 358 354 347
9 285 278 271 256 127 103 274 261 218 213 254 281 9 354 257 249 246 250 258 262 265 264 262 267 270 266 271 254 174 152 134 128 121 111 104 96 92 89 80 69 68 65 64 63 58 55 50 46 43 38 34 31 27 26 23 21 19 18 18 17 16 16 14 12 11 10 9 9 9 9 8 8 7 7 6 6 5 5 4 2 0 359 358 356 355
64 270 281 271 198 150 136 222 252 227 199 265 309 275 227 254 270 261 255 258 260 265 271 268 265 263 264 298 335 112 139 140 143 133 118 107 101 98 97 92 76 67 58 51 49 44 42 40 36 33 31 28 27 25 23 20 17 15 12 11 12 12 12 11 10 10 8 8 8 6 6 4 3 3 2 2 1 0 0 0 359 358 357 356 354 354
195 235 265 269 165 180 216 222 247 260 243 227 232 227 224 221 251 269 258 247 253 264 271 271 264 260 285 356 29 81 113 130 139 131 123 117 113 107 102 98 86 74 61 51 49 40 39 39 35 32 29 26 24 22 21 20 17 15 11 7 5 4 4 5 6 7 6 6 4 2 1 0 359 358 357 357 356 356 356 355 354 352 352 353 353 351
246 242 260 271 247 245 260 256 266 283 283 268 257 245 248 253 259 268 256 237 238 256 261 268 268 263 333 24 41 70 82 93 110 118 121 123 122 117 103 95 85 74 58 48 45 39 38 38 36 34 31 28 24 19 18 17 14 13 11 8 5 1 359 357 357 358 358 359 359 359 358 356 355 353 352 352 350 350 350 350 349 349 347 348 349 348
329 271 258 263 260 264 275 279 280 282 277 270 269 261 264 267 257 256 263 263 260 261 263 267 267 266 49 34 47 67 71 81 93 104 115 119 117 108 96 86 75 63 54 46 43 39 37 36 34 33 30 26 22 18 15 11 8 7 5 4 3 1 359 357 353 351 350 349 350 350 351 351 351 349 347 345 345 345 345 345 345 345 344 345 346 345
65 253 251 258 262 267 274 274 273 274 256 248 252 251 257 263 260 263 274 294 286 272 273 269 264 263 53 37 54 72 78 90 103 116 126 133 131 119 100 84 86 83 76 64 55 49 40 34 30 27 23 18 14 11 8 5 2 360 358 358 357 356 357 356 354 353 350 348 346 344 343 343 344 345 344 342 340 340 340 341 342 342 342 342 341 341
306 250 254 271 274 272 273 265 255 212 176 247 269 285 290 295 296 296 286 280 266 242 241 258 268 266 103 82 94 127 153 158 163 160 159 175 176 161 148 138 164 171 152 137 103 64 37 24 18 12 8 5 3 1 359 357 355 351 350 350 349 348 349 349 349 351 350 349 347 344 342 340 338 338 340 341 341 339 336 335 336 338 340 339 337 336
279 267 270 274 272 268 267 267 274 327 51 291 292 286 285 285 281 283 281 274 263 238 233 252 273 273 187 187 206 202 208 207 193 187 197 207 202 194 196 198 203 202 189 173 125 44 21 16 13 8 4 1 358 356 353 349 346 343 340 340 340 339 339 340 342 343 344 344 343 342 341 339 337 335 335 336 338 338 338 337 335 335 336 336 336 335
268 270 264 260 262 264 266 275 291 302 294 286 285 275 272 271 268 271 271 262 264 270 264 262 270 276 273 269 256 215 204 217 212 203 207 210 210 208 210 212 213 216 220 228 241 269 315 332 340 349 355 356 354 353 352 347 342 338 335 333 333 332 331 333 334 335 336 336 336 335 335 334 334 333 332 331 331 332 334 335 335 334 333 331 330 330
267 267 265 263 261 263 267 273 278 282 278 277 280 275 271 269 262 254 253 257 269 281 270 265 274 280 282 285 287 275 226 218 220 217 214 212 212 210 207 209 214 220 224 228 236 244 259 271 280 298 311 323 334 339 340 339 337 334 333 331 329 328 327 327 327 328 328 328 328 328 328 328 329 329 328 328 327 327 327 328 329 329 329 329 327 325
271 267 266 269 268 267 269 271 271 273 274 275 274 271 269 268 263 257 257 263 269 268 268 278 283 282 285 286 287 290 273 232 219 217 212 210 208 204 204 209 214 219 223 228 237 242 252 262 270 279 287 297 309 316 320 323 324 325 326 326 325 326 325 323 322 322 321 320 320 320 320 321 323 323 323 323 323 323 322 322 322 322 322 323 323 323
261 261 264 268 270 269 270 271 272 274 274 272 268 267 267 265 263 265 268 271 270 268 273 279 277 275 279 279 279 281 262 219 207 201 196 198 200 201 208 214 216 222 228 234 242 247 257 266 274 281 289 296 300 303 310 312 312 317 323 324 324 324 323 321 320 319 317 316 316 315 316 316 316 317 316 317 318 318 319 318 318 317 317 316 316 316
253 264 279 285 276 270 270 273 274 274 274 272 269 266 263 261 263 266 268 269 270 271 272 272 271 272 272 271 266 225 176 181 186 187 194 202 202 205 215 221 225 232 238 244 249 257 266 273 282 288 291 297 299 299 303 306 311 320 324 323 322 324 323 321 320 319 317 317 316 316 315 314 314 313 312 312 312 312 313 313 313 313 313 313 312 311
265 269 293 300 274 265 267 275 281 284 282 274 264 258 256 257 261 261 260 264 268 272 274 273 273 276 276 264 158 157 165 177 193 199 211 216 209 215 228 233 237 241 248 256 259 264 273 277 284 290 293 298 303 306 309 313 319 323 324 321 321 323 324 323 323 322 319 318 317 317 316 314 313 311 309 308 308 307 307 308 308 308 309 309 309 309
258 270 288 284 273 261 263 278 304 328 290 268 251 246 251 256 261 261 261 264 265 268 275 276 275 294 14 62 297 229 182 185 216 224 231 232 232 245 250 249 250 252 255 260 263 268 275 279 283 290 296 299 304 310 314 317 320 322 322 321 321 323 324 324 323 322 320 319 318 317 315 313 311 309 308 307 305 304 304 304 303 303 304 304 304 305
248 252 261 269 270 267 272 284 310 263 258 261 197 211 249 260 263 265 266 266 267 267 272 273 220 158 134 164 234 252 206 217 264 276 266 257 254 260 263 262 261 261 262 265 270 274 278 283 288 292 297 301 306 311 314 316 318 320 319 320 322 323 324 324 323 321 320 319 318 316 315 313 311 308 307 306 304 303 302 301 300 300 300 300 299 299
251 247 252 258 259 268 279 281 264 248 248 288 87 182 266 279 270 266 266 265 267 268 271 273 231 175 159 141 155 281 326 309 304 294 275 258 254 258 261 263 265 266 268 271 276 280 283 287 291 294 298 303 308 312 314 316 318 317 317 319 321 322 322 322 320 319 318 317 316 314 313 311 310 309 307 305 304 302 300 299 298 298 297 296 295 295
245 246 254 253 248 261 263 247 250 257 262 255 232 222 259 273 259 263 266 262 261 262 269 278 263 155 132 108 87 343 322 310 301 288 270 258 258 260 258 261 267 270 273 276 278 282 287 289 289 291 296 303 310 313 315 316 316 314 315 317 318 318 319 319 318 317 317 315 314 313 312 311 311 310 308 307 305 303 301 300 298 297 296 295 294 292
237 244 255 254 244 250 254 248 256 274 273 255 246 234 237 258 265 279 284 279 262 250 249 235 170 148 135 119 154 278 300 306 299 291 280 262 254 259 262 266 273 276 277 279 278 281 287 289 288 292 299 305 310 314 315 314 312 312 312 313 314 315 316 316 316 316 315 314 314 313 312 311 310 309 307 306 305 303 302 301 299 297 296 295 293 292
238 239 242 251 250 245 256 263 262 267 267 261 276 21 34 15 355 332 293 279 258 240 220 175 151 148 144 173 218 212 249 284 281 294 297 266 232 259 274 270 272 276 277 278 280 285 289 289 291 297 303 306 308 311 312 310 309 310 310 311 313 314 314 314 315 315 314 313 312 311 309 308 306 305 304 303 301 300 300 300 299 298 297 295 293 291
244 242 237 249 257 249 255 261 257 263 273 253 199 42 63 65 37 357 285 278 287 214 185 153 140 156 185 220 217 191 212 259 266 292 310 298 253 278 281 276 277 278 278 282 289 291 290 291 297 300 302 304 307 308 308 307 307 309 309 311 312 313 313 313 313 313 312 311 309 308 306 306 304 303 302 300 299 298 297 297 297 297 297 296 294 293
220 232 231 238 247 246 248 252 252 263 281 68 155 95 112 115 53 332 285 282 1 162 171 155 160 187 205 221 217 195 218 248 270 290 297 293 286 281 279 284 288 285 285 290 291 287 287 294 299 300 301 304 306 305 305 305 307 308 309 310 311 312 312 312 311 310 309 308 307 306 305 305 303 302 300 299 298 298 297 297 297 297 296 295 293 293
188 219 229 236 244 244 246 252 257 260 264 266 244 175 150 130 243 261 276 286 150 182 183 172 185 207 224 243 251 242 246 258 273 284 286 283 281 277 277 283 287 287 291 292 286 286 291 296 298 298 300 303 303 303 304 306 306 308 309 310 310 310 311 310 309 308 308 307 306 305 304 303 302 301 301 300 300 300 299 299 298 296 295 293 292 291
205 214 228 239 246 245 247 256 263 266 256 235 198 165 165 187 248 263 296 105 162 186 190 191 207 233 257 267 267 264 266 271 278 282 282 279 279 277 277 281 285 288 289 284 283 290 295 296 296 298 300 301 302 303 305 306 306 308 309 310 310 310 310 309 308 308 307 306 304 303 302 302 302 302 302 302 302 301 300 299 298 296 294 292 290 289
254 257 250 245 243 247 256 253 252 275 269 160 142 139 193 216 253 297 342 154 178 193 206 215 231 253 266 269 270 271 275 278 279 279 278 276 276 277 278 282 284 284 282 283 289 293 294 294 296 299 300 302 303 304 305 306 308 309 310 310 310 310 309 308 307 306 305 303 303 302 303 303 303 303 303 303 303 302 301 301 300 298 296 293 291 290
249 249 256 255 245 250 258 246 241 287 314 153 171 238 258 246 262 278 277 254 241 237 235 237 253 266 266 264 267 271 275 277 277 276 275 273 275 278 280 279 275 277 282 288 292 292 292 295 298 300 301 303 305 306 307 308 309 309 309 310 309 309 308 307 306 305 304 303 303 304 304 304 304 304 304 304 305 305 304 304 303 302 301 298 293 289
214 223 237 248 256 260 267 271 284 300 288 222 220 256 271 272 271 269 268 272 273 269 264 265 276 282 277 267 266 269 271 274 278 278 275 274 277 278 275 272 274 280 287 290 292 292 294 298 300 301 303 305 306 308 309 309 309 309 309 309 309 309 308 307 306 304 304 304 305 305 305 305 305 306 306 307 307 307 307 307 306 304 302 297 289 283
237 245 247 251 264 266 266 268 273 278 274 267 262 259 262 270 274 273 270 268 269 272 273 275 281 284 279 273 270 267 266 271 279 281 277 275 275 271 270 275 281 286 288 289 291 293 296 300 301 303 304 306 308 309 310 309 309 309 309 310 311 310 308 307 305 305 305 305 306 306 307 307 307 309 309 309 309 309 308 307 305 301 296 290 285 282
250 252 251 250 257 259 261 260 258 261 266 269 269 263 262 267 270 269 267 266 268 274 278 280 281 279 276 277 276 270 268 272 276 276 273 270 270 272 277 282 284 286 288 290 293 296 299 302 303 304 306 308 310 310 310 309 309 310 311 312 312 310 308 307 306 306 307 307 308 308 309 310 311 312 312 310 309 309 307 305 301 295 288 285 285 283
249 252 247 243 247 249 256 264 264 264 266 267 268 266 266 268 269 269 270 272 276 278 277 278 281 281 281 283 281 275 273 272 270 268 267 267 272 277 281 283 284 286 289 292 294 297 300 303 305 307 308 309 310 310 309 310 311 313 314 314 312 310 308 308 308 309 309 310 311 311 312 313 313 312 310 307 305 304 302 299 295 289 284 284 284 282
255 257 248 243 251 253 256 262 265 266 267 265 263 263 266 270 273 276 276 275 277 280 278 275 280 286 285 282 279 275 273 272 269 266 266 269 274 278 280 281 285 288 291 293 296 300 303 306 307 308 309 309 310 310 311 312 314 315 316 315 313 311 310 310 311 312 312 312 313 314 314 313 310 307 305 303 301 299 298 297 293 288 286 286 284 281
250 251 242 240 251 253 247 249 253 258 265 269 269 270 272 275 280 282 278 272 274 282 283 278 280 285 285 281 279 277 275 273 269 266 269 274 277 278 279 282 286 289 292 295 299 303 306 307 308 308 308 309 310 312 313 314 315 317 317 314 313 314 315 315 315 314 314 315 315 313 311 308 305 303 302 301 301 300 299 298 294 289 285 286 285 282
237 242 241 237 243 246 244 248 251 254 262 271 276 279 279 279 281 279 273 270 276 283 285 280 279 281 282 281 279 276 271 268 267 269 274 276 276 278 281 284 287 291 293 297 302 305 307 307 307 307 308 310 312 313 314 315 316 317 316 316 318 319 319 318 318 317 316 314 311 308 306 304 303 303 302 301 301 301 300 299 298 294 288 286 287 286